Погода в Сулаке

Россия / Пензенская область     53°05′10″N   43°32′01″E
темп.,
°C
ветер,
м/с
пор.,
м/с
влажн.,
%
обл.,
%
осадки,
мм/ч
давл.,
гПа
погр.,
м
4 декабря, сб
сб400:00+4ююз91890100 0.0 1008683
03:00+5ююз101980100 0.0 1006710
06:00+5ююз101885100 0.7 10041076
09:00+1зсз4899100 3.3 1008347
12:00+2з5974100 0.2 1009818
15:00+1зюз586757 0.2 1011496
18:00−1з4882100 0.0 1012490
21:00−2зсз488362 0.0 1014578
5 декабря, вс
вс500:00−3з378210 0.0 1015426
03:00−3з368275 0.0 1016329
06:00−3з238471 0.0 101693
09:00−3сз118159 0.0 101746
12:00−1с1167100 0.0 1018285
15:00−1с1171100 0.0 101913
18:00−2всв2275100 0.0 101934
21:00−2вюв23765 0.0 101948
6 декабря, пн
пн600:00−3в117499 0.0 102110
03:00−3в2273100 0.0 102238
06:00−3вюв2371100 0.0 102279
09:00−2вюв3668100 0.0 1024207
12:00−1юв4760100 0.0 1024360
15:00−1вюв4864100 0.0 1024319
18:00−2юв4967100 0.0 1025321
21:00−3юв5117374 0.0 1025370
7 декабря, вт
вт700:00−3юв5117294 0.0 1025391
03:00−3юв51173100 0.0 1025424
06:00−3юв61278100 0.0 1024437
09:00−2юв71482100 0.0 1023472
12:00−1юв81692100 0.1 1022492
15:000ююв71695100 1.6 1020540
18:00+1ююв81795100 0.6 1019502
21:00+2ююв71695100 1.5 1019498
8 декабря, ср
ср800:00+2ююв71794100 0.4 1018513
03:00+2ююв71891100 0.4 1017517
06:00+3ю71891100 0.0 1017512
09:00+2ююв61792100 0.0 1018456
12:00+3ююв61592100 0.0 1018467
15:00+3юв51393100 0.0 1017351
18:00+2юв51392100 0.0 1017331
21:00+1юв61490100 0.0 1017351